FALCON 9 DEB (48155 NORAD) Tracking and Keplerian Element Data

This shows tracking and keplerian element data for the satellite.

Feedback or suggestion? Click here.




ElementValue
Catalog48155
NameFALCON 9 DEB
Epoch Orbit355
Epoch Day119.69633338
Epoch Year2021
RAAN226.1816
Inclination53.0359
Eccentricity0.0006713
Argument of Perigee287.2549
Mean Anonmoly72.7762
Mean Motion16.40260612
Decay Rate0.05959252
L11 48155U 21027BR 21119.69633338 .05959252 12395-4 41712-3 0 9999
L22 48155 53.0359 226.1816 0006713 287.2549 72.7762 16.40260612 3552

Live tracking and technical data element details for FALCON 9 DEB (NORAD 48155). FALCON 9 DEB can be tracked NOW for your location showing map with azimuth and elevation plus other details from your city location.

Track the satellite on the map from your city or location and see movement details for azimuth, elevation, latitude, longitude, range, height, and movement on the map or in text.







IsCatalogInMostPopularTable: catalog: 48155, numindb: 16
Update: records affected: 1



GetName: 48155 FALCON 9 DEB

Hit Count: updated at: Mon, 17 May 2021 15:56:51 GMT